Wetbulb
34.42 35.81 36.18 35.02 34.85 35.68 34.44 37.67 33.43 35.83 37.35 41.43 43.29 44.35 46.40 48.02 49.33 49.74 50.66 51.83 53.17 53.84 57.64 58.28 58.04 58.12 57.80 57.25 57.06 57.23 56.80 56.41 56.13 56.91 57.31 57.88 57.85 57.31 56.60 56.37 56.38 56.16 55.10 54.59
32.72 36.50 36.58 34.39 36.64 36.50 36.42 36.74 37.04 38.25 36.92 44.35 46.25 47.43 48.18 49.38 49.33 49.00 49.87 51.65 52.15 53.13 55.18 58.46 58.55 58.33 58.41 57.67 57.41 57.90 57.52 56.41 56.83 56.83 57.08 57.37 57.64 57.97 57.69 57.22 56.93 56.33 56.00 55.03
27.89 34.35 33.21 28.52 34.12 36.38 37.46 38.80 37.69 33.58 40.03 44.90 44.96 46.37 46.92 47.99 50.16 49.83 50.27 51.84 52.44 53.13 52.97 53.02 54.62 58.66 58.42 58.29 58.25 57.61 57.07 58.03 57.62 57.42 56.89 57.29 57.55 57.40 57.49 57.67 58.43 57.58 57.22 56.87
27.42 29.60 19.41 34.26 40.32 40.44 40.52 40.65 41.44 42.03 42.73 43.70 44.41 46.30 48.67 49.57 49.56 51.51 51.55 51.87 52.34 52.84 53.15 53.19 53.46 53.71 54.88 59.06 58.35 57.47 57.29 57.37 58.49 58.39 57.65 57.66 57.74 56.98 56.98 57.12 57.06 57.55 57.84 57.57
25.01 24.84 30.46 34.61 39.70 39.05 37.15 37.63 41.86 40.72 41.68 43.45 45.55 46.44 47.54 48.74 50.05 51.38 51.36 52.27 52.11 52.53 52.08 52.25 52.40 53.94 54.47 55.36 58.68 57.97 57.47 57.71 58.03 58.31 58.27 58.43 57.85 57.36 57.47 57.43 56.80 53.43 47.44 44.12
26.48 24.50 20.34 35.49 40.13 43.85 42.67 33.07 42.92 43.27 42.40 42.19 43.37 39.84 42.21 48.16 50.58 49.94 49.29 49.69 49.26 48.74 47.77 46.74 47.24 51.38 52.20 50.29 52.59 55.90 57.89 58.40 58.28 57.75 57.48 57.33 57.13 54.61 46.81 47.21 40.52 38.61 36.33 36.69
26.17 26.14 29.78 39.82 41.52 44.23 33.07 33.07 42.01 43.01 43.33 43.95 41.13 44.62 48.16 50.60 49.21 48.21 46.19 45.70 46.66 45.34 43.24 43.16 44.07 48.40 45.75 45.75 45.15 46.78 46.64 55.58 56.94 56.32 56.74 53.96 47.52 44.07 41.18 38.14 35.70 33.45 32.32 32.94
26.93 26.38 23.20 41.09 41.16 36.30 37.98 41.69 40.58 40.89 42.69 45.23 46.13 48.33 50.31 48.15 44.13 43.05 41.63 41.90 42.19 41.32 40.18 40.85 41.00 42.90 41.13 39.94 42.43 43.18 43.41 43.32 44.26 46.53 44.80 43.43 41.15 39.29 38.33 35.91 33.24 31.45 30.28 29.63
30.88 30.08 39.61 41.84 40.34 42.82 42.25 39.05 39.14 39.93 42.07 43.03 43.22 42.88 42.60 41.80 40.31 38.41 37.83 37.75 38.80 37.81 37.78 38.42 39.00 38.44 36.77 36.72 37.94 38.86 38.87 38.32 38.32 40.32 41.20 41.45 38.06 34.88 33.76 33.78 31.73 29.86 28.88 27.87
34.00 39.04 40.57 41.13 41.93 42.11 41.88 40.77 40.41 40.92 41.79 41.71 39.58 38.75 38.07 37.29 36.05 35.86 35.12 34.66 36.31 36.54 35.50 35.41 36.90 36.66 35.54 35.01 34.30 33.15 32.22 32.59 33.98 33.69 32.78 33.52 34.43 34.96 33.22 31.87 30.36 29.11 28.14 26.87
37.40 39.47 39.21 38.49 38.70 39.29 39.74 41.29 40.71 40.63 39.85 38.29 37.11 35.64 34.76 33.21 32.42 32.23 32.58 33.14 33.21 32.40 31.73 31.75 34.34 34.83 34.97 34.18 32.95 30.55 29.83 29.56 29.40 29.53 29.17 28.43 28.84 29.36 28.51 29.67 30.45 28.41 27.87 28.30
31.03 34.53 37.46 35.79 37.43 38.89 37.67 37.25 39.45 38.03 36.94 35.52 34.92 32.69 31.66 29.43 29.49 29.59 29.47 29.97 29.60 29.70 29.60 29.74 30.87 31.88 33.93 34.18 32.79 30.44 28.53 27.95 27.33 26.91 26.83 27.79 26.59 26.53 29.90 29.28 29.92 29.68 29.49 28.63
32.46 36.72 37.08 38.10 37.60 37.48 36.79 36.89 37.88 36.04 34.53 32.60 32.65 31.30 29.69 27.35 27.03 26.94 26.62 26.71 26.79 27.01 28.11 28.54 28.87 29.48 31.45 32.58 32.40 30.03 27.86 27.58 27.03 26.14 25.37 24.83 24.69 24.14 22.79 26.86 29.56 29.68 29.53 29.76
34.25 35.96 35.19 36.26 33.80 35.09 35.04 36.31 36.26 34.36 31.76 29.87 29.24 28.93 26.66 25.32 24.99 24.64 24.32 25.24 25.98 26.35 26.71 27.66 27.93 28.08 30.69 31.27 29.79 28.33 27.81 27.20 26.14 25.29 24.22 23.46 22.69 22.36 22.47 21.50 20.85 22.06 26.66 27.28
31.31 34.71 34.56 35.93 35.53 32.97 32.63 33.07 31.53 29.39 28.55 26.37 26.03 24.27 23.33 21.85 21.42 22.14 23.76 24.85 25.31 25.32 25.72 26.16 25.96 26.61 29.53 30.47 29.84 28.74 27.58 26.53 26.09 25.29 24.52 23.63 22.96 22.08 21.56 20.87 20.17 19.73 20.39 20.98
29.84 30.15 30.55 30.31 30.75 31.13 29.48 28.27 27.40 26.37 25.52 23.88 22.95 22.02 21.48 21.46 20.99 21.10 22.08 23.09 21.73 21.61 23.94 24.18 24.85 26.90 27.75 27.81 27.38 27.10 26.92 27.08 26.28 24.67 22.85 21.72 21.24 20.05 19.26 18.82 19.50 19.70 18.82 18.36
24.62 23.92 25.34 25.79 27.39 27.21 25.99 25.85 25.28 23.92 22.97 22.35 22.06 21.75 21.22 20.38 20.09 19.52 19.74 20.58 20.74 20.90 22.03 23.45 23.97 25.70 25.84 26.05 26.01 25.28 24.84 24.45 23.66 22.58 21.45 20.47 19.45 17.86 17.45 16.70 16.21 16.42 16.36 17.21
25.60 24.99 24.42 24.72 25.23 24.26 22.60 22.50 21.94 21.22 20.47 20.94 20.75 19.30 17.86 17.63 16.99 17.50 18.35 19.42 19.26 18.87 20.12 22.03 22.63 23.01 24.12 24.75 24.23 23.64 22.91 22.93 22.60 21.82 21.68 20.10 19.00 17.94 16.63 15.59 15.03 13.92 13.55 13.63
22.95 21.45 20.66 21.12 22.23 21.12 20.46 20.14 19.92 20.11 19.03 18.82 17.06 15.59 15.36 15.02 14.67 14.59 15.22 14.31 14.42 14.97 17.20 20.36 22.86 21.70 21.26 21.88 22.41 21.48 20.08 18.79 18.24 17.85 18.18 17.76 16.94 16.55 15.32 14.27 13.10 12.67 12.69 11.72
19.90 19.97 19.06 18.33 18.30 18.55 15.86 16.20 15.49 15.31 16.10 15.54 15.14 14.71 13.76 13.68 13.62 12.71 12.62 11.15 12.86 14.48 17.49 19.12 20.10 19.65 20.54 21.04 20.42 19.12 18.08 17.43 16.62 15.66 15.19 14.29 13.48 12.79 12.61 11.56 10.32 7.82 6.53 7.10
16.92 15.20 16.23 16.36 15.23 15.53 15.35 14.60 14.08 13.44 14.25 13.69 11.71 10.52 10.06 10.79 12.68 12.60 10.75 9.60 12.88 15.85 16.69 17.52 17.94 17.99 18.57 18.55 18.11 17.42 16.86 15.43 14.47 13.29 12.84 11.50 10.58 9.56 7.89 6.06 6.57 5.03 5.52 5.69
12.01 13.66 12.24 13.29 13.69 13.67 14.01 13.92 13.48 12.84 12.18 12.38 13.47 13.08 11.86 10.95 10.85 10.85 12.07 11.27 13.50 14.50 15.34 15.73 16.27 16.07 15.81 15.94 15.42 14.63 14.28 13.49 12.67 12.32 11.02 9.62 6.41 4.04 2.29 3.82 4.17 1.96 1.55 3.51
14.79 14.56 13.46 11.50 12.15 12.44 13.07 13.48 14.08 13.21 11.41 11.26 10.39 9.87 9.31 9.82 11.01 8.29 6.74 12.39 13.16 12.79 13.48 13.67 14.20 14.26 14.51 13.92 12.71 11.52 10.85 10.59 9.41 8.06 7.48 5.81 3.62 0.63 1.62 1.75 -2.14 -4.62 -6.17 -2.14
17.18 17.77 16.40 15.86 15.12 14.14 12.26 13.00 13.83 13.88 12.64 13.05 13.52 13.75 12.56 9.67 9.56 11.09 11.39 10.97 10.88 11.46 11.76 12.22 12.83 12.62 10.68 9.57 8.64 8.61 9.41 8.57 6.91 6.78 6.04 2.19 2.80 -1.22 -3.14 -3.24 -3.21 -8.45 -9.70 -5.18
13.64 12.34 13.25 13.16 13.13 13.10 13.57 14.13 13.74 13.12 12.37 11.94 12.27 12.50 13.19 13.85 10.66 12.18 12.60 12.39 13.24 11.06 10.34 10.98 10.90 9.98 9.57 9.29 7.19 5.84 5.38 4.75 4.88 3.36 0.44 -0.99 -3.46 -6.43 -8.97 -9.91 -12.08 -10.81 -4.62 -4.44
18.03 17.66 18.98 18.82 18.05 17.78 17.38 16.21 13.20 13.23 12.66 11.03 11.23 9.99 9.65 11.03 11.61 11.61 11.40 11.24 10.50 9.05 8.45 7.97 8.32 8.80 7.20 7.57 5.95 3.06 2.25 2.27 0.17 0.56 -2.96 -5.18 -1.09 -7.92 -10.81 -10.42 -7.52 -6.43 -10.96 -13.50
18.69 17.79 16.97 16.45 16.82 16.96 17.16 16.14 13.51 11.85 11.09 7.71 7.52 7.50 9.17 8.65 8.88 9.92 8.09 7.14 6.48 6.46 4.81 2.18 1.58 3.17 2.91 0.81 1.27 1.36 -1.81 -7.38 -6.67 -7.37 -9.33 -9.33 -9.33 -9.70 -11.88 -13.32 -13.32 -13.50 -13.68 -12.78
MSLP
1004.98 1004.58 1003.80 1003.16 1002.43 1001.91 1002.16 1002.51 1002.19 1000.68 1000.14 998.84 998.89 998.87 998.76 997.85 997.21 996.49 995.88 995.28 994.86 995.39 996.34 997.10 997.88 998.80 999.77 1000.43 1001.27 1002.12 1003.14 1003.89 1004.30 1004.93 1005.54 1006.07 1006.61 1007.34 1007.95 1008.53 1008.93 1009.34 1009.90 1010.26
1005.59 1005.07 1004.26 1003.28 1002.28 1001.74 1001.48 1001.41 1001.10 1000.92 1000.34 999.49 998.87 998.76 998.66 998.39 998.37 996.59 995.66 995.27 995.26 995.57 996.17 996.64 997.11 997.84 998.73 999.42 1000.09 1000.80 1001.77 1002.72 1003.51 1004.16 1004.73 1005.17 1005.84 1006.28 1006.83 1007.45 1007.95 1008.65 1008.89 1009.29
1006.60 1005.72 1004.93 1003.71 1002.67 1002.08 1001.61 1001.11 1001.42 1001.89 1001.91 1000.54 999.98 1000.02 1000.02 999.28 998.29 997.53 996.82 996.72 996.57 996.72 997.03 997.91 998.17 997.97 997.59 998.28 999.02 999.65 1000.41 1001.25 1002.08 1002.93 1003.66 1004.26 1004.98 1005.61 1006.11 1006.54 1007.04 1007.40 1007.80 1008.43
1007.68 1006.77 1005.41 1003.47 1002.41 1001.89 1001.93 1002.70 1002.80 1002.66 1002.60 1002.42 1001.81 1001.06 1000.66 1000.40 998.69 998.01 998.10 997.98 997.93 997.98 997.97 998.11 998.51 998.67 998.59 998.75 998.45 999.04 999.48 1000.01 1000.66 1001.50 1002.36 1003.23 1004.02 1004.66 1005.33 1005.86 1006.38 1006.94 1007.30 1007.51
1008.41 1007.61 1005.92 1003.97 1003.34 1003.39 1003.72 1004.01 1004.10 1003.92 1003.76 1003.51 1002.54 1001.53 1001.17 1001.38 1001.07 1000.20 999.98 999.53 999.65 999.70 999.79 999.52 999.18 999.41 998.99 998.82 998.97 998.80 998.98 999.16 999.73 1000.42 1001.28 1002.27 1002.99 1003.67 1004.54 1005.50 1006.33 1006.94 1007.71 1008.19
1008.53 1007.96 1006.42 1005.05 1004.36 1003.60 1003.45 1004.63 1004.85 1004.68 1004.42 1004.34 1003.66 1003.60 1003.22 1002.78 1002.47 1002.11 1002.07 1002.01 1001.84 1001.54 1001.68 1001.64 1001.39 1000.59 1000.19 1000.33 1000.32 1000.12 999.46 998.28 999.41 999.95 1000.39 1001.35 1002.47 1003.35 1004.19 1005.00 1006.48 1007.44 1008.53 1009.27
1008.65 1008.34 1006.88 1005.96 1005.14 1004.46 1005.32 1006.62 1006.02 1005.56 1005.69 1005.45 1005.20 1005.04 1004.04 1003.71 1003.54 1003.25 1003.81 1003.72 1003.62 1003.82 1003.47 1003.92 1003.09 1002.28 1002.29 1002.14 1002.06 1002.04 1001.09 999.48 999.07 999.49 1000.10 1000.85 1002.21 1003.60 1004.95 1006.15 1007.24 1008.37 1009.31 1010.32
1008.48 1008.39 1007.74 1006.24 1005.68 1006.36 1007.18 1006.62 1006.67 1006.55 1006.25 1005.94 1005.82 1004.69 1003.64 1004.38 1004.70 1005.07 1005.63 1005.32 1004.97 1005.76 1005.59 1005.40 1004.84 1004.09 1004.23 1003.95 1003.77 1003.10 1002.36 1002.15 1002.07 1001.86 1002.05 1001.64 1002.56 1004.72 1005.79 1006.41 1007.58 1009.19 1009.95 1011.12
1007.40 1007.43 1007.88 1007.31 1007.38 1007.40 1007.38 1007.52 1007.41 1007.19 1006.89 1006.61 1006.66 1006.79 1006.67 1006.95 1007.31 1007.05 1007.57 1007.49 1007.52 1007.78 1007.41 1006.04 1005.77 1005.54 1005.52 1005.81 1005.11 1004.50 1004.14 1004.43 1004.64 1004.51 1004.70 1005.14 1003.80 1004.50 1006.45 1007.84 1008.59 1009.50 1010.60 1011.55
1007.21 1007.56 1007.80 1007.91 1007.97 1007.97 1007.87 1007.77 1007.90 1008.09 1007.87 1007.78 1007.91 1008.70 1008.38 1008.34 1008.70 1008.54 1008.16 1008.88 1009.08 1008.30 1007.14 1007.49 1007.37 1007.17 1006.97 1006.60 1006.40 1006.05 1006.09 1006.68 1006.79 1006.98 1007.38 1007.08 1007.14 1007.09 1007.42 1008.04 1010.22 1009.71 1011.73 1012.31
1008.12 1008.15 1008.19 1008.55 1008.92 1008.88 1008.81 1008.54 1008.47 1008.86 1009.02 1009.09 1009.29 1009.82 1010.22 1010.86 1010.37 1010.05 1010.66 1010.18 1009.60 1009.20 1009.47 1009.39 1009.12 1008.69 1008.35 1007.78 1006.79 1007.39 1008.03 1008.63 1008.97 1009.19 1009.46 1009.38 1009.61 1009.94 1009.62 1010.33 1010.76 1010.42 1011.26 1014.02
1009.81 1009.82 1008.79 1009.50 1009.74 1009.33 1009.32 1009.25 1009.19 1009.48 1009.87 1010.40 1010.92 1011.60 1012.24 1012.06 1011.98 1012.21 1012.03 1011.30 1011.17 1011.24 1011.11 1010.65 1010.15 1009.72 1009.75 1009.08 1008.82 1007.33 1008.42 1009.55 1010.51 1011.50 1011.71 1011.38 1011.31 1012.15 1012.50 1012.47 1012.67 1013.73 1012.35 1013.46
1011.11 1010.35 1010.10 1010.19 1010.36 1010.32 1010.14 1010.26 1010.33 1010.61 1011.19 1011.78 1012.39 1012.91 1013.49 1013.49 1013.73 1013.48 1013.03 1012.81 1012.70 1012.67 1012.45 1011.91 1011.26 1010.90 1011.59 1010.47 1010.26 1010.27 1009.69 1010.34 1011.26 1012.20 1012.81 1013.56 1013.61 1013.43 1014.14 1014.48 1015.21 1015.51 1015.61 1015.48
1011.59 1011.21 1011.12 1011.12 1011.29 1011.48 1011.68 1011.40 1011.55 1012.09 1012.79 1013.40 1013.89 1014.15 1014.54 1014.64 1014.73 1014.38 1014.34 1014.36 1014.02 1013.71 1013.54 1013.26 1012.35 1012.53 1012.88 1011.89 1011.60 1011.74 1011.96 1012.14 1012.77 1013.40 1014.02 1014.77 1015.22 1015.26 1014.92 1015.69 1016.34 1017.51 1018.35 1017.90
1012.90 1012.42 1012.24 1012.08 1012.16 1012.55 1012.72 1012.79 1013.01 1013.57 1014.14 1014.67 1015.09 1015.32 1015.70 1015.97 1015.92 1015.96 1015.72 1015.42 1015.01 1014.91 1014.90 1014.42 1013.86 1013.85 1013.82 1013.22 1012.57 1012.91 1013.43 1013.87 1014.44 1014.78 1015.20 1016.73 1016.62 1016.22 1016.80 1017.52 1018.13 1018.25 1019.74 1020.42
1014.36 1014.19 1013.81 1013.78 1013.80 1013.84 1014.14 1014.56 1014.80 1015.18 1015.61 1016.08 1016.40 1016.71 1017.11 1017.36 1017.30 1017.23 1017.13 1016.79 1016.20 1016.20 1016.12 1015.64 1015.14 1015.48 1015.12 1014.44 1014.07 1014.16 1014.71 1015.18 1015.72 1016.17 1016.73 1017.64 1018.09 1017.97 1018.50 1019.14 1019.68 1019.84 1021.07 1021.52
1015.79 1015.79 1015.84 1015.79 1015.67 1015.64 1015.74 1015.98 1016.31 1016.67 1017.00 1017.21 1017.48 1017.91 1018.16 1018.19 1018.18 1018.35 1018.22 1018.05 1017.67 1017.51 1017.42 1017.14 1017.05 1016.82 1016.39 1015.94 1015.74 1015.91 1016.16 1016.54 1017.08 1017.81 1018.38 1018.95 1019.50 1019.80 1020.21 1020.65 1021.31 1021.85 1022.27 1022.63
1017.56 1017.68 1017.70 1017.58 1017.31 1017.28 1017.50 1017.66 1017.88 1018.08 1018.29 1018.58 1018.79 1019.03 1019.20 1019.28 1019.45 1019.60 1019.55 1019.48 1019.18 1019.10 1018.97 1018.79 1018.48 1018.09 1017.56 1017.60 1017.70 1017.84 1017.86 1018.08 1018.54 1019.12 1019.71 1020.20 1020.81 1021.41 1022.02 1022.49 1022.80 1023.16 1023.40 1023.89
1018.82 1018.98 1019.13 1019.01 1018.81 1018.83 1018.93 1019.07 1019.29 1019.51 1019.79 1020.00 1020.11 1020.39 1020.61 1020.80 1020.98 1021.10 1021.10 1020.92 1020.77 1020.67 1020.83 1020.32 1019.82 1019.28 1019.17 1019.11 1019.23 1019.79 1019.67 1019.86 1020.21 1020.62 1020.96 1021.68 1022.01 1022.60 1023.12 1023.44 1023.83 1024.23 1024.73 1025.48
1019.87 1020.01 1020.15 1020.18 1020.10 1020.11 1020.34 1020.54 1020.62 1020.79 1021.05 1021.14 1021.29 1021.59 1021.85 1022.11 1022.23 1022.28 1022.39 1022.47 1022.72 1022.63 1022.22 1021.65 1021.15 1020.90 1020.82 1020.93 1020.81 1020.82 1020.99 1021.23 1021.69 1022.15 1022.56 1023.03 1023.44 1023.85 1024.44 1024.75 1025.30 1025.91 1026.24 1026.70
1020.87 1021.05 1021.11 1021.18 1021.34 1021.44 1021.53 1021.68 1021.73 1021.93 1022.24 1022.31 1022.49 1022.87 1023.15 1023.40 1023.41 1023.54 1023.51 1023.56 1024.00 1023.74 1023.40 1023.03 1022.47 1022.23 1022.22 1022.12 1022.09 1022.25 1022.50 1022.70 1023.13 1023.51 1023.72 1024.39 1025.03 1025.42 1026.04 1026.48 1026.70 1027.08 1027.57 1027.72
1021.60 1021.89 1022.06 1022.20 1022.33 1022.48 1022.64 1022.69 1022.78 1022.96 1023.22 1023.42 1023.60 1023.83 1024.08 1024.40 1024.56 1024.61 1024.71 1024.73 1024.99 1024.75 1024.43 1024.10 1023.91 1023.66 1023.41 1023.30 1023.40 1023.55 1023.80 1024.19 1024.55 1024.92 1025.20 1025.68 1026.41 1026.99 1027.64 1027.92 1028.09 1028.15 1028.17 1028.41
1022.26 1022.53 1022.77 1022.93 1023.11 1023.33 1023.36 1023.49 1023.63 1023.85 1024.12 1024.40 1024.69 1024.89 1025.07 1025.40 1025.53 1025.61 1025.59 1025.83 1025.61 1025.52 1025.34 1025.24 1025.12 1024.90 1024.67 1024.72 1024.76 1024.85 1025.18 1025.54 1025.94 1026.18 1026.36 1026.89 1027.46 1028.05 1028.45 1028.74 1028.79 1028.73 1029.05 1029.34
1022.80 1023.08 1023.30 1023.35 1023.44 1023.70 1023.98 1024.38 1024.55 1024.84 1024.96 1025.12 1025.20 1025.44 1025.69 1026.00 1026.36 1026.56 1026.56 1026.54 1026.47 1026.32 1026.17 1026.19 1026.18 1026.12 1026.04 1026.21 1026.33 1026.39 1026.58 1026.91 1027.15 1027.29 1027.57 1027.96 1028.40 1028.81 1029.24 1029.48 1029.64 1029.77 1029.90 1029.80
1023.16 1023.46 1023.78 1023.88 1024.01 1024.23 1024.48 1024.79 1025.11 1025.39 1025.61 1025.86 1026.12 1026.27 1026.37 1026.49 1026.54 1026.88 1026.97 1027.07 1027.13 1027.14 1027.15 1027.19 1027.22 1027.19 1027.19 1027.37 1027.59 1027.73 1027.99 1028.13 1028.29 1028.52 1028.81 1029.06 1029.37 1029.88 1030.22 1030.44 1030.43 1030.35 1030.45 1030.13
1023.41 1023.53 1023.62 1023.69 1023.91 1024.18 1024.48 1024.79 1025.27 1025.73 1026.04 1026.43 1026.82 1027.06 1027.10 1027.14 1027.20 1027.29 1027.43 1027.60 1027.86 1028.05 1028.15 1028.23 1028.21 1028.12 1028.14 1028.32 1028.56 1028.79 1028.99 1029.20 1029.45 1029.64 1029.79 1030.07 1030.32 1030.61 1030.93 1031.10 1030.71 1030.49 1030.60 1030.59
1023.65 1023.83 1024.08 1024.35 1024.54 1024.73 1024.92 1025.22 1025.70 1026.19 1026.49 1026.89 1027.30 1027.55 1027.57 1027.60 1027.67 1027.77 1027.96 1028.11 1028.35 1028.61 1028.79 1028.96 1029.11 1029.03 1029.04 1029.22 1029.39 1029.36 1029.48 1029.88 1029.86 1030.06 1030.30 1030.44 1030.56 1030.75 1030.87 1030.93 1030.83 1030.66 1030.52 1030.43
Wind_Speed
8 7 11 13 13 15 8 9 8 11 15 9 7 10 5 7 13 7 9 7 3 11 12 13 14 15 15 16 17 17 18 17 17 17 16 16 18 18 17 17 16 17 17 16
6 8 9 12 14 13 11 11 10 8 8 7 12 13 17 17 15 16 7 12 5 9 6 16 17 15 16 17 18 18 18 18 17 16 16 16 14 16 17 18 17 18 17 18
3 7 8 6 8 11 14 12 7 5 8 15 16 18 19 20 20 8 9 11 12 9 9 9 8 6 16 17 17 18 19 18 19 18 18 18 16 15 15 15 15 18 18 17
3 6 2 5 8 11 6 13 12 11 14 14 15 19 12 18 14 11 12 12 13 12 12 11 6 6 6 8 17 17 16 18 17 20 19 17 18 17 16 14 14 12 14 14
2 2 7 9 5 5 8 9 10 11 12 11 17 17 3 21 20 9 14 13 13 14 16 16 18 15 10 4 12 16 17 17 17 15 17 18 18 18 14 12 11 6 4 7
1 3 3 2 11 11 11 4 9 9 13 14 17 9 5 13 15 19 20 18 17 16 15 16 18 18 13 13 11 7 12 17 12 11 13 12 11 9 4 7 9 8 11 10
5 3 6 7 1 3 3 2 9 10 7 9 8 11 13 6 12 15 16 18 16 16 15 14 15 13 14 13 14 11 15 6 7 7 11 9 8 8 10 11 13 12 13 10
3 2 7 13 7 6 4 8 9 7 9 6 9 17 8 15 18 19 17 18 18 14 14 14 14 13 14 14 12 11 13 15 14 10 5 9 16 11 11 14 15 12 13 11
7 4 3 9 12 8 9 5 7 8 11 12 15 16 14 15 14 15 13 12 10 6 5 10 12 12 12 12 12 12 14 16 15 14 11 7 11 15 11 8 9 10 10 10
2 9 11 11 9 7 8 8 8 9 10 13 14 13 13 13 13 12 14 10 7 8 14 13 12 12 9 10 12 15 17 16 14 14 14 13 9 8 8 11 6 12 9 11
5 13 13 13 10 7 8 8 7 10 14 15 14 14 12 10 12 13 10 10 12 13 12 13 12 11 9 7 13 16 15 14 14 13 14 15 15 11 13 13 12 9 13 8
3 8 9 8 8 12 10 11 9 11 12 15 14 12 9 10 11 11 10 12 11 12 11 11 12 13 11 9 6 15 15 12 12 11 11 11 14 17 31 29 33 26 28 19
4 7 11 8 11 11 11 12 12 13 14 12 13 11 10 10 10 11 12 12 12 10 10 10 11 14 12 10 9 11 14 14 11 11 11 10 11 14 15 23 30 29 29 29
11 10 8 8 6 11 11 11 14 13 13 12 11 11 10 10 10 12 12 10 10 11 11 10 13 13 9 10 13 15 14 17 11 10 11 10 10 10 11 12 13 13 22 20
13 12 11 10 11 11 12 11 12 11 11 11 11 12 11 11 12 11 10 10 11 12 11 11 12 12 10 10 13 14 11 10 10 10 10 10 9 11 11 11 11 11 10 12
10 12 13 12 11 10 11 11 10 10 9 9 9 11 11 11 12 12 12 12 13 12 11 11 13 11 10 11 13 13 12 15 12 9 10 10 8 10 10 10 9 9 8 8
7 10 9 9 9 8 10 9 9 8 8 8 8 9 10 11 12 12 13 13 14 14 14 12 12 12 12 12 12 10 10 11 14 11 10 9 9 10 9 9 9 9 9 9
8 10 10 9 8 8 9 9 8 8 8 9 9 10 10 11 11 11 10 10 13 15 15 14 14 14 14 13 12 10 10 10 10 10 9 9 9 9 8 9 9 9 9 11
10 10 9 10 9 8 8 8 8 8 7 8 10 11 11 11 11 10 10 12 12 12 11 11 14 14 14 15 12 9 10 11 11 10 10 11 10 9 8 9 9 8 8 7
10 10 10 9 10 10 9 8 9 10 9 9 9 11 11 10 10 11 12 14 11 7 9 10 11 12 12 12 12 9 10 10 10 9 9 9 9 9 9 10 8 7 6 6
7 6 8 8 8 8 8 7 9 10 9 10 11 11 11 11 9 8 10 9 10 9 10 12 9 8 8 9 10 9 9 9 9 8 9 8 8 8 7 6 6 6 5 5
4 5 5 7 9 10 10 10 10 10 10 10 9 9 10 10 10 11 11 9 6 10 8 8 8 12 10 12 8 9 10 10 8 8 8 8 7 6 5 5 6 5 5 5
5 6 7 7 9 9 10 10 10 10 10 10 9 9 9 7 5 5 7 8 7 9 8 8 11 13 12 8 8 9 9 9 8 8 8 7 6 5 5 4 4 4 4 2
6 6 6 5 6 9 10 8 9 9 9 10 9 6 6 5 6 6 6 8 9 9 8 8 10 12 10 7 7 8 7 7 6 7 7 7 5 5 5 5 4 3 3 3
4 4 5 6 7 6 8 7 7 7 8 8 8 8 9 5 4 4 4 5 8 7 7 9 10 10 6 6 6 6 6 6 5 5 5 5 5 4 3 3 2 1 2 3
5 4 5 5 4 3 4 4 5 5 5 6 5 3 3 3 4 4 4 6 6 7 5 5 5 5 5 5 5 5 5 5 5 4 5 4 4 3 3 3 2 2 2 1
4 5 5 5 5 6 5 5 5 5 5 4 4 2 3 3 4 4 5 4 3 4 3 2 3 4 4 4 4 4 3 3 5 4 3 3 3 3 3 2 1 1 1 0
Wind_Direction
296 295 299 285 290 296 273 224 253 290 275 301 353 355 344 268 337 285 315 290 222 145 175 170 169 171 173 174 177 180 186 195 199 201 203 200 197 200 203 203 207 205 209 210
313 312 304 285 284 284 295 294 296 290 304 352 353 1 353 342 327 302 292 223 62 26 118 168 178 179 178 179 181 180 183 193 195 196 199 200 200 200 198 204 204 211 211 212
277 350 325 283 246 266 279 257 273 305 1 6 357 352 342 326 314 322 16 45 41 43 59 67 36 229 181 183 179 186 190 185 192 193 199 203 199 201 203 201 203 207 210 207
279 346 285 247 315 314 103 46 26 18 13 5 349 334 330 11 342 77 70 46 35 31 20 15 55 38 18 208 183 192 193 197 191 191 195 196 198 204 208 205 207 208 208 206
180 222 282 307 24 41 2 60 36 23 9 353 356 340 77 5 350 21 36 42 46 34 26 13 10 8 359 350 215 191 199 202 202 194 186 190 197 199 199 201 202 177 75 96
266 227 245 46 19 2 3 84 354 33 19 0 2 350 313 340 2 40 32 24 27 32 30 18 2 358 27 25 12 309 243 202 192 184 185 187 186 173 98 108 108 100 86 86
230 270 283 26 352 104 139 56 26 25 22 2 5 302 287 342 44 54 43 26 25 24 34 12 6 5 20 19 22 358 352 323 172 190 181 149 103 106 106 105 102 96 91 79
189 234 255 340 71 51 269 21 27 4 347 6 354 356 25 62 53 37 28 21 27 19 23 15 18 26 21 18 1 20 38 29 22 34 56 117 112 106 114 122 116 113 110 97
172 181 119 53 90 37 47 54 7 4 7 20 48 35 24 19 32 50 40 36 34 13 30 33 27 38 41 12 17 32 45 44 32 34 34 28 89 112 101 96 108 116 108 99
73 130 109 106 89 54 33 38 20 22 16 34 56 39 24 16 21 24 34 23 7 19 31 24 15 23 43 59 50 50 51 43 43 45 38 38 45 59 80 99 71 109 90 101
93 97 93 60 52 30 35 24 40 40 51 43 49 42 39 21 21 27 14 20 24 31 30 19 10 15 19 50 87 73 63 56 51 53 55 59 53 54 65 58 81 96 98 79
64 328 90 84 49 31 28 12 19 55 51 57 57 50 46 39 33 27 19 29 34 33 34 28 28 22 8 20 40 106 95 84 77 63 60 65 76 74 70 77 78 74 82 93
37 322 62 87 64 33 28 2 62 56 46 48 56 63 56 55 45 43 35 34 32 25 26 31 43 42 12 27 55 61 87 93 91 85 85 81 85 87 85 69 73 72 78 86
10 355 50 38 64 45 33 15 58 61 56 46 46 56 58 52 43 44 45 36 40 39 34 35 51 45 23 60 73 77 79 81 82 88 87 86 81 77 90 88 87 76 63 75
358 353 27 46 50 53 44 24 49 49 46 45 44 51 54 57 52 42 37 43 47 47 42 39 46 41 35 54 73 77 79 79 80 85 84 87 92 90 83 84 82 92 78 59
352 30 28 34 24 34 57 43 47 49 51 53 61 63 67 68 66 58 48 44 51 43 35 38 44 33 40 54 68 73 73 78 80 78 78 78 71 76 79 77 81 84 89 84
19 25 21 24 16 59 59 55 53 59 59 57 70 84 85 80 71 60 54 48 50 46 39 38 47 42 44 46 62 71 75 75 78 76 77 76 76 76 79 78 78 78 77 76
46 51 40 29 36 69 69 65 61 57 65 74 72 70 68 65 66 58 51 54 56 51 40 40 45 46 48 48 52 58 67 72 76 81 88 88 87 86 89 92 91 89 82 71
52 56 49 36 50 67 74 74 75 81 78 81 80 74 72 66 62 57 53 52 48 48 27 31 46 53 55 56 62 57 64 68 69 67 70 79 82 83 81 80 77 73 76 82
60 63 64 54 46 55 60 54 60 64 55 66 73 78 74 66 63 65 60 57 43 35 23 32 45 53 56 58 64 70 70 73 76 77 76 75 74 74 72 74 79 78 76 80
69 58 60 62 63 60 62 64 76 75 73 73 80 77 74 65 60 66 65 61 28 25 32 38 51 57 58 66 67 69 74 79 78 76 77 75 72 69 65 62 68 66 70 80
66 75 78 77 76 71 65 69 71 71 66 65 72 83 84 78 73 70 58 64 45 32 38 44 48 54 58 62 63 66 68 68 68 72 76 76 70 67 67 71 78 66 58 69
75 79 80 81 87 85 74 66 68 78 81 76 76 73 69 62 59 73 72 43 62 52 52 48 49 47 53 59 63 66 65 67 71 71 71 75 82 74 65 67 73 73 62 77
85 101 103 104 97 91 85 74 74 69 68 62 64 80 95 102 94 84 87 78 66 60 62 55 52 56 57 54 52 54 56 65 68 68 67 65 71 68 64 69 56 34 41 62
109 116 115 108 103 106 112 109 96 83 81 76 73 72 78 75 89 95 88 89 76 60 49 45 58 51 51 63 66 69 67 61 58 67 68 71 84 85 75 78 85 63 64 84
94 78 75 80 105 120 123 122 120 126 115 103 93 81 65 75 84 83 79 85 85 77 64 51 42 43 46 56 70 77 68 58 54 57 70 61 79 87 79 56 49 54 89 122
96 96 87 76 63 61 68 83 95 92 92 98 106 87 88 68 76 76 72 67 76 91 83 53 55 55 53 60 64 77 80 65 57 59 64 69 74 112 97 96 66 338 335 328